User: anonymous   Login
Location: Palomar Mountain Lodge
(33.3110°N, 116.8495°W)
Time: 01:02:11
(UTC-07:00)
Language:

Cosmos 1400 Rocket - Orbit

View from above orbital plane
View from above orbital plane
View from above satellite
View from above satellite

Ground track
Ground track

The orbit data is extracted from the following two-line orbital elements,

1 13403U 82079B   19293.86553934 -.00000293  00000-0 -20882-4 0  9994
2 13403  81.1714   8.8523 0032625 339.2489  20.7407 15.07062897 25582
Epoch (UTC): 20 October 2019 20:46:22
Eccentricity: 0.0032625
inclination: 81.1714°
perigee height: 522 km
apogee height: 568 km
right ascension of ascending node: 8.8523°
argument of perigee: 339.2489°
revolutions per day: 15.07062897
mean anomaly at epoch: 20.7407°
orbit number at epoch: 2558

The dashed part of the orbit path shows where the satellite is in the earth's shadow,  

DLR